Simultaneous Nadir Overpasses (SNOs) Predictions

Prediction of SNOs between GOES-15 and METOP-A Satellite Orbit:

Table of predicted SNOs for the next 14.0 days since TLE Epoch: 8/6/2016
Index Date Time (GOES-15) GOES-15 Lat,Lon METOP-A Lat,Lon Distance(km) Time Diff (sec)
1 08/07/2016 06:43:09 -0.03,-134.63 -0.80,-138.08 393.16 80
2 08/08/2016 06:19:50 -0.00,-134.58 0.34,-133.09 170.40 80
3 08/09/2016 18:41:20 0.04,-134.52 0.73,-137.64 355.20 80
4 08/10/2016 18:18:01 0.01,-134.47 -0.41,-132.65 207.95 80
5 08/12/2016 06:39:39 -0.05,-134.38 -0.69,-137.23 324.70 80
6 08/13/2016 06:16:20 -0.03,-134.32 0.45,-132.24 238.07 80
7 08/14/2016 18:37:50 0.06,-134.25 0.62,-136.78 288.82 80
8 08/15/2016 18:14:30 0.04,-134.19 -0.51,-131.79 273.44 80
9 08/17/2016 06:36:09 -0.07,-134.08 -0.57,-136.37 260.47 80
10 08/18/2016 06:12:49 -0.05,-134.02 0.57,-131.38 301.46 80
11 08/19/2016 18:34:20 0.08,-133.94 0.51,-135.93 226.63 80




NCC Satellite Simultaneous Nadir Overpasses (SNOs) Prediction Service
